User: anonymous   Login
Location: Unspecified
(0.0000°N, 0.0000°E)
Time: 19:23:01
(UTC+00:00)
Language:

ESTCUBE 1 - Orbit

View from above orbital plane
View from above orbital plane
View from above satellite
View from above satellite

Ground track
Ground track

The orbit data is extracted from the following two-line orbital elements,

1 39161U 13021C   18140.43067966  .00000163  00000-0  33812-4 0  9993
2 39161  98.0080 226.7128 0010692 140.3083 219.8909 14.72060991270367
Epoch (UTC): 20 May 2018 10:20:10
Eccentricity: 0.0010692
inclination: 98.0080°
perigee height: 647 km
apogee height: 662 km
right ascension of ascending node: 226.7128°
argument of perigee: 140.3083°
revolutions per day: 14.72060991
mean anomaly at epoch: 219.8909°
orbit number at epoch: 27036

The dashed part of the orbit path shows where the satellite is in the earth's shadow,  

DLR